Home > Weather > Oral > Past weeks

Flag for Kazakhstan Weather for the Past 2 Weeks in Oral, Kazakhstan

Now
23 °F

Mostly cloudy.


Feels Like: 12 °F
Forecast: 11 / 21 °F
Wind: 10 mph from Northwest

Location: Uralsk

Current Time: Feb 7, 2016 at 8:40:54 PM

Latest Report: Feb 7, 2016 at 8:00 PM


Visibility: N/A

Pressure: 30.18 "Hg

Humidity: 93%

Dew point: 21 °F

Location of OralLocation

Historic Weather in Oral — Graph

°F

Oral Temperature Yesterday

Maximum temperature yesterday: 34 °F (at 10:00 AM)
Minimum temperature yesterday: 28 °F (at 9:30 PM)
Average temperature yesterday: 32 °F

High & Low Weather Summary for the Past Weeks

 TemperatureHumidityPressure
High36 °F (Feb 4, 1:00 AM)100% (Jan 29, 8:30 PM)30.30 "Hg (Jan 29, 8:30 PM)
Low-17 °F (Jan 27, 10:00 AM)76% (Jan 27, 5:30 AM)29.62 "Hg (Feb 4, 3:00 AM)
Average19 °F90%30.04 "Hg
* Reported Jan 23 7:00 PM — Feb 7 7:30 PM, Oral, Weather by CustomWeather, © 2016

Note: Actual official high and low records may vary slightly from our data, if they occured in-between our weather recording intervals... More about our weather records

Advertising

Oral Weather History for the Previous 24 Hours

 ConditionsComfort  
Time TempWeatherWind HumidityBarometerVisibility
7:30 PM
Sun, Feb 7
23 °FPassing clouds.10 mph93%30.18 "HgN/A
7:00 PM23 °FPassing clouds.10 mph93%30.15 "HgN/A
6:30 PM23 °FPartly sunny.15 mph93%30.15 "HgN/A
6:00 PM23 °FMostly cloudy.17 mph86%30.15 "HgN/A
5:30 PM23 °FMostly cloudy.15 mph93%30.12 "HgN/A
5:00 PM23 °FMostly cloudy.13 mph93%30.12 "HgN/A
4:30 PM23 °FMostly cloudy.17 mph93%30.12 "HgN/A
4:00 PM23 °FMostly cloudy.17 mph93%30.09 "HgN/A
3:30 PM23 °FMostly cloudy.17 mph93%30.09 "HgN/A
3:00 PM23 °FMostly cloudy.17 mph93%30.09 "HgN/A
2:30 PM23 °FMostly cloudy.17 mph93%30.09 "HgN/A
2:00 PM23 °FMostly cloudy.17 mph93%30.09 "HgN/A
1:30 PM23 °FMostly cloudy.17 mph93%30.07 "Hg6 mi
1:00 PM23 °FMostly cloudy.20 mph93%30.07 "Hg5 mi
12:30 PM23 °FMostly cloudy.20 mph93%30.07 "Hg5 mi
12:00 PM23 °FMostly cloudy.17 mph93%30.07 "Hg4 mi
11:30 AM21 °FIce fog.17 mph100%30.07 "Hg3 mi
11:00 AM19 °FIce fog.17 mph100%30.04 "Hg2 mi
10:30 AM19 °FIce fog.20 mph93%30.04 "Hg2 mi
10:00 AM18 °FPartly sunny.17 mph93%30.01 "HgN/A
9:30 AM19 °FSunny.17 mph86%30.01 "Hg10 mi
9:00 AM19 °FClear.20 mph93%30.01 "Hg10 mi
8:30 AM21 °FClear.15 mph86%29.98 "Hg10 mi
8:00 AM21 °FClear.13 mph86%29.98 "Hg10 mi
7:30 AM23 °FClear.15 mph80%29.98 "Hg10 mi
7:00 AM23 °FClear.17 mph86%29.95 "Hg10 mi
6:00 AM23 °FClear.15 mph86%29.95 "Hg10 mi
5:00 AM23 °FClear.15 mph80%29.92 "Hg10 mi
4:00 AM23 °FClear.20 mph80%29.92 "Hg10 mi
3:00 AM23 °FClear.13 mph80%29.92 "Hg10 mi
2:00 AM23 °FClear.15 mph86%29.92 "Hg10 mi
1:00 AM25 °FClear.15 mph86%29.89 "Hg10 mi
12:00 AM27 °FClear.13 mph86%29.89 "Hg10 mi
11:00 PM
Sat, Feb 6
28 °FClear.15 mph86%29.89 "Hg10 mi
10:00 PM28 °FPassing clouds.13 mph93%29.89 "HgN/A
9:30 PM28 °FPartly cloudy.13 mph93%29.89 "HgN/A
9:00 PM30 °FPartly cloudy.15 mph93%29.89 "HgN/A
8:30 PM30 °FPartly cloudy.15 mph93%29.89 "HgN/A
8:00 PM30 °FPartly cloudy.15 mph93%29.89 "HgN/A
Weather by CustomWeather, © 2016

See weather overviewHow to use our weather pages